K2MIT Weather Reports


Display with metric or nautical units.
time (UTC)temp
F
wind
direction
speed
MPH
gust
MPH
rain 1hr
in
rain 24hr
in
rain mn
in
humidity
%
barometer
mb
20260506221530 59 0 0.0 0.0 0.00 0.09 0.09 91 1006.8
20260506220030 59 0 0.0 0.0 0.00 0.09 0.09 91 1006.7
20260506214535 59 0 0.0 0.0 0.00 0.09 0.09 90 1006.7
20260506213034 59 153 0.0 4.0 0.00 0.09 0.09 90 1006.5
20260506211536 59 0 1.0 5.0 0.00 0.09 0.09 90 1006.7
20260506210035 59 141 1.0 5.0 0.01 0.09 0.09 90 1006.4
20260506204536 59 116 1.0 4.0 0.02 0.09 0.09 90 1006.2
20260506203057 60 201 1.0 8.0 0.02 0.09 0.09 89 1006.3
20260506201534 60 251 3.0 8.0 0.03 0.09 0.09 90 1006.6
20260506200044 58 242 2.0 7.0 0.02 0.08 0.08 90 1006.8
20260506194532 58 111 0.0 4.0 0.01 0.07 0.07 89 1007.1
20260506193030 58 0 1.0 4.0 0.01 0.07 0.07 89 1007.3
20260506191535 59 159 2.0 5.0 0.00 0.06 0.06 88 1007.2
20260506190044 59 102 1.0 9.0 0.01 0.06 0.06 88 1007.1
20260506184533 59 133 1.0 5.0 0.01 0.06 0.06 88 1007.3
20260506183036 59 126 2.0 5.0 0.03 0.06 0.06 88 1007.4
20260506181534 59 229 1.0 8.0 0.03 0.06 0.06 89 1007.7
20260506180036 59 229 2.0 5.0 0.03 0.05 0.05 88 1007.9
20260506174534 58 216 3.0 9.0 0.04 0.05 0.05 87 1007.7
20260506173037 59 209 1.0 6.0 0.03 0.03 0.03 87 1007.7
20260506171535 59 154 1.0 8.0 0.03 0.03 0.03 86 1008.1
20260506170032 59 169 3.0 9.0 0.02 0.02 0.02 85 1008.4
20260506164538 59 155 1.0 7.0 0.01 0.01 0.01 83 1008.5
20260506163053 61 149 3.0 8.0 0.00 0.00 0.00 79 1009.0
20260506161530 62 165 2.0 11.0 0.00 0.00 0.00 76 1009.5
20260506160030 62 122 3.0 9.0 0.00 0.00 0.00 76 1009.0
20260506154541 62 153 3.0 7.0 0.00 0.00 0.00 75 1009.2
20260506153034 64 171 1.0 6.0 0.00 0.00 0.00 73 1009.4
20260506151540 65 159 1.0 7.0 0.00 0.00 0.00 71 1009.5
20260506150038 66 147 2.0 7.0 0.00 0.00 0.00 69 1009.4
20260506144530 65 266 2.0 7.0 0.00 0.00 0.00 71 1009.2
20260506143034 64 128 3.0 9.0 0.00 0.00 0.00 71 1009.3
20260506141533 64 226 4.0 10.0 0.00 0.00 0.00 72 1009.3
20260506140036 64 163 4.0 10.0 0.00 0.00 0.00 71 1009.5
20260506134532 65 123 3.0 11.0 0.00 0.00 0.00 72 1009.3
20260506133029 64 221 2.0 10.0 0.00 0.00 0.00 75 1009.6
20260506131537 63 192 3.0 8.0 0.00 0.00 0.00 75 1009.4
20260506130038 62 198 2.0 9.0 0.00 0.00 0.00 77 1009.3
20260506124534 62 109 1.0 5.0 0.00 0.00 0.00 77 1009.2
20260506123034 62 171 2.0 5.0 0.00 0.00 0.00 77 1009.4
20260506121530 62 178 1.0 6.0 0.00 0.00 0.00 77 1009.7
20260506120039 61 248 3.0 7.0 0.00 0.00 0.00 79 1010.0
20260506114535 60 115 1.0 4.0 0.00 0.00 0.00 81 1010.0
20260506113035 59 184 0.0 5.0 0.00 0.00 0.00 85 1010.0
20260506111535 57 0 0.0 2.0 0.00 0.00 0.00 87 1009.8
20260506110032 56 134 0.0 4.0 0.00 0.00 0.00 87 1009.9
20260506104532 56 231 2.0 6.0 0.00 0.00 0.00 87 1009.9
20260506103034 56 0 0.0 5.0 0.00 0.00 0.00 87 1009.7
20260506101534 55 165 1.0 6.0 0.00 0.00 0.00 87 1009.5
20260506100037 55 150 1.0 4.0 0.00 0.00 0.00 87 1009.7
20260506094532 55 0 0.0 3.0 0.00 0.00 0.00 86 1009.6
20260506093033 55 186 1.0 7.0 0.00 0.00 0.00 86 1009.5
20260506091535 56 184 1.0 5.0 0.00 0.00 0.00 86 1009.6
20260506090030 56 161 1.0 3.0 0.00 0.00 0.00 86 1009.4
20260506084537 56 148 1.0 5.0 0.00 0.00 0.00 86 1009.8
20260506083035 56 0 1.0 5.0 0.00 0.00 0.00 85 1009.8
20260506081540 56 0 1.0 4.0 0.00 0.00 0.00 85 1009.9
20260506073034 56 200 1.0 5.0 0.00 0.00 0.00 84 1009.9
20260506071535 56 0 2.0 7.0 0.00 0.00 0.00 84 1010.2
20260506061531 57 148 1.0 4.0 0.00 0.00 0.00 81 1010.0
20260506044538 60 122 0.0 3.0 0.00 0.00 0.00 72 1010.5
20260506043030 61 135 1.0 4.0 0.00 0.00 0.00 71 1010.4
20260506041544 61 0 0.0 5.0 0.00 0.00 0.00 69 1010.3
20260506040035 62 205 2.0 7.0 0.00 0.00 0.00 68 1010.3
20260506034547 63 130 3.0 11.0 0.00 0.00 0.00 66 1010.4
20260506033035 64 205 5.0 11.0 0.00 0.00 0.00 65 1010.4
20260506031532 64 244 3.0 13.0 0.00 0.00 0.00 64 1010.1
20260506030038 64 186 4.0 10.0 0.00 0.00 0.00 63 1010.1
20260506024533 64 175 5.0 10.0 0.00 0.00 0.00 63 1010.2
20260506023034 64 184 4.0 11.0 0.00 0.00 0.00 63 1010.2
20260506021533 65 148 4.0 13.0 0.00 0.00 0.00 63 1010.1
20260506020030 65 216 5.0 16.0 0.00 0.00 0.00 62 1010.2
20260506014529 65 212 4.0 10.0 0.00 0.00 0.00 62 1010.0
20260506013048 65 219 6.0 16.0 0.00 0.00 0.00 62 1009.7
20260506011531 65 142 6.0 17.0 0.00 0.00 0.00 63 1009.6
20260506010035 65 285 2.0 11.0 0.00 0.00 0.00 63 1009.4
20260506004530 65 244 6.0 16.0 0.00 0.00 0.00 62 1009.3
20260506003032 65 171 4.0 16.0 0.00 0.00 0.00 63 1009.1
20260506001533 64 244 3.0 7.0 0.00 0.00 0.00 65 1008.8
20260506000033 65 143 1.0 6.0 0.00 0.00 0.00 64 1008.8
20260505234532 66 196 1.0 8.0 0.00 0.00 0.00 63 1008.6
20260505233031 67 205 2.0 12.0 0.00 0.00 0.00 61 1008.3
20260505231534 67 253 2.0 8.0 0.00 0.00 0.00 60 1008.5
20260505230049 68 190 2.0 9.0 0.00 0.00 0.00 58 1008.1
20260505224530 69 132 3.0 7.0 0.00 0.00 0.00 57 1007.8
20260505223040 69 159 2.0 8.0 0.00 0.00 0.00 57 1007.7